Vorticity
3 7 0 5 7 0 5 3 8 5 7 6 4 14 2 4 9 14 16 14 13 17 14 11 12 12 8 11 6 2 18 12 16 12 8 7 3 4 0 -0 3 8 8 6
5 -4 5 4 3 1 10 3 5 6 9 13 12 5 1 4 16 14 15 11 10 14 22 10 11 6 -1 4 11 7 2 3 4 8 20 9 10 7 3 1 -1 -1 1 1
6 8 -2 12 8 7 5 5 6 4 -1 5 1 5 18 30 10 7 12 11 10 16 6 4 9 7 10 6 2 4 8 6 1 -1 5 8 13 20 17 11 6 3 4 2
7 6 10 -12 10 14 6 7 18 8 7 2 31 6 1 4 -1 5 7 8 8 6 10 15 18 23 15 21 20 19 0 -1 2 2 3 9 11 8 16 20 12 8 5 7
11 11 6 13 1 6 4 9 18 10 6 7 12 3 6 23 9 6 6 10 6 1 1 2 5 -7 4 11 31 22 25 16 12 14 18 12 11 7 6 12 17 15 10 7
-4 5 9 2 13 6 3 14 6 5 8 34 5 3 8 1 6 14 8 9 7 17 8 6 7 14 14 14 23 21 19 23 25 21 14 6 10 11 6 8 6 6 7 6
9 3 9 -1 1 15 15 2 11 17 35 -4 10 16 -11 28 14 16 11 5 6 2 6 8 8 6 8 11 10 8 8 9 7 8 14 17 17 17 17 15 15 16 15 16
17 29 10 7 -1 1 7 4 -44 12 9 -1 6 22 23 22 20 6 21 10 7 5 5 7 5 3 2 2 4 5 6 6 5 5 4 3 1 3 2 3 3 1 -2 2
-3 19 11 25 13 -2 21 7 5 -4 6 34 -2 -7 -9 -14 4 18 10 7 5 15 9 8 9 8 2 -1 -3 -2 1 1 2 1 2 1 6 6 5 5 7 6 7 10
13 5 -4 20 18 17 6 15 8 17 12 0 24 1 2 11 46 12 11 4 8 6 17 9 4 3 5 8 8 10 11 6 2 6 9 6 4 6 9 10 8 11 5 8
24 6 27 -1 6 23 13 8 7 -9 3 -12 14 39 16 7 37 11 14 6 8 3 0 3 3 2 2 2 6 5 3 5 6 4 6 8 9 10 12 12 9 23 24 4
22 32 17 17 15 -11 -3 24 13 -23 42 9 -28 22 -28 -37 6 13 19 23 8 3 -3 -1 -3 -4 3 5 1 12 11 8 5 9 8 3 6 9 12 12 7 11 23 31
8 29 65 32 16 17 -0 -7 37 9 2 9 -33 24 8 17 42 18 28 6 -4 -10 7 7 -1 8 5 9 12 4 8 11 10 10 8 9 11 11 11 13 16 20 13 21
1 30 -7 -2 -9 19 44 -10 -13 7 4 13 14 5 -5 -9 5 16 14 -1 11 6 12 6 4 0 9 5 6 11 7 8 8 11 12 14 15 12 14 11 16 23 20 19
18 -6 37 10 16 11 4 -3 46 -8 -2 4 0 11 9 11 1 3 17 5 18 21 10 -0 -0 7 4 8 8 5 3 11 11 5 4 7 8 10 11 12 6 4 7 8
2 23 -23 37 10 8 13 16 19 5 5 31 13 11 5 4 32 25 -7 17 26 10 -4 3 6 7 10 0 3 7 14 10 6 8 8 5 3 5 -0 -2 -3 -5 7 11
-0 25 2 3 20 52 37 13 4 15 -10 10 27 6 14 10 3 16 -5 18 32 4 10 12 6 5 1 3 12 10 7 7 6 3 0 6 13 17 28 19 21 24 -2 4
-0 -2 -4 -0 16 49 54 29 14 8 19 -20 -9 -7 28 16 1 27 35 34 8 4 8 1 5 -0 7 9 5 6 10 -0 4 9 4 5 12 2 22 8 13 11 38 1
14 4 2 0 -6 -50 -1 25 21 28 11 12 9 -3 -8 21 30 -5 19 -10 2 3 -0 1 -0 2 0 8 8 0 7 10 8 1 -4 9 20 6 16 10 8 12 15 25
39 27 4 -25 -24 -5 32 56 31 32 3 9 14 20 28 7 -10 15 22 6 11 6 5 4 2 7 12 4 -6 -2 9 10 12 5 -8 22 13 11 11 18 14 13 13 12
6 -11 40 9 2 31 -28 -13 33 -2 26 84 33 17 25 -5 23 1 6 5 20 2 11 1 4 9 0 7 18 -7 -1 9 10 21 21 19 12 14 13 11 10 10 11 14
3 3 7 18 28 5 -28 7 13 10 -13 8 42 46 18 42 10 18 0 20 4 4 -9 -13 1 -4 8 19 7 -8 12 20 16 17 17 11 8 10 12 14 16 18 19 20
15 12 -4 -51 32 18 -16 21 4 24 -11 18 9 10 32 7 -0 3 20 4 -4 22 11 -0 -0 5 16 12 -3 16 21 17 15 7 11 10 11 12 13 14 16 13 8 5
22 4 2 28 48 12 5 17 41 10 20 4 -7 -3 -13 5 39 16 10 5 -0 -1 6 2 3 22 3 22 13 29 11 10 11 9 11 11 12 12 13 12 7 6 7 10
-35 -57 -17 26 19 10 51 16 3 12 18 -1 50 54 23 -9 -20 3 15 7 3 -5 11 20 14 12 13 17 12 10 10 9 9 10 11 11 11 11 10 9 11 14 15 16
2 6 4 20 16 1 -23 22 25 9 18 20 -15 7 23 32 9 -9 1 2 4 10 10 21 7 13 14 10 9 8 7 8 10 12 11 11 11 10 10 10 9 8 8 9
Height
3151 3152 3148 3152 3153 3151 3151 3149 3148 3148 3147 3145 3142 3139 3138 3138 3136 3133 3132 3132 3132 3131 3132 3134 3133 3134 3134 3136 3136 3135 3136 3138 3139 3139 3140 3140 3141 3142 3142 3143 3143 3143 3143 3142
3149 3141 3147 3148 3149 3148 3147 3146 3144 3145 3143 3141 3138 3134 3133 3132 3131 3129 3128 3128 3127 3126 3125 3127 3127 3128 3128 3130 3131 3131 3132 3132 3133 3134 3136 3135 3135 3136 3137 3138 3138 3139 3138 3138
3139 3139 3144 3143 3142 3143 3142 3142 3140 3141 3140 3137 3134 3128 3125 3126 3125 3125 3123 3122 3121 3120 3121 3120 3122 3123 3124 3125 3126 3127 3127 3127 3128 3129 3129 3130 3130 3130 3130 3130 3131 3132 3132 3132
3132 3136 3137 3137 3136 3139 3136 3139 3137 3137 3137 3131 3128 3122 3121 3122 3121 3121 3121 3119 3120 3118 3118 3116 3117 3118 3118 3118 3118 3120 3121 3122 3123 3123 3123 3124 3125 3125 3124 3123 3124 3124 3125 3126
3121 3128 3130 3129 3131 3134 3131 3134 3133 3133 3131 3129 3124 3122 3116 3117 3116 3117 3117 3116 3116 3116 3116 3115 3115 3114 3113 3112 3111 3113 3115 3116 3116 3116 3117 3118 3119 3119 3119 3118 3118 3119 3118 3119
3117 3121 3122 3123 3125 3126 3128 3129 3128 3128 3126 3120 3117 3118 3109 3111 3110 3112 3113 3113 3111 3112 3113 3112 3112 3112 3110 3109 3108 3108 3110 3111 3111 3112 3113 3113 3114 3114 3113 3113 3112 3112 3111 3109
3109 3109 3113 3116 3118 3120 3121 3123 3122 3118 3113 3108 3108 3106 3101 3104 3106 3107 3107 3109 3108 3108 3109 3109 3109 3109 3109 3108 3107 3107 3108 3108 3108 3108 3109 3109 3108 3108 3108 3106 3106 3105 3103 3101
3098 3097 3102 3107 3106 3112 3113 3114 3112 3101 3102 3099 3096 3092 3099 3101 3104 3104 3104 3105 3105 3104 3104 3106 3105 3105 3106 3106 3106 3106 3105 3105 3105 3105 3105 3105 3104 3103 3102 3101 3099 3098 3095 3093
3092 3085 3092 3094 3100 3105 3104 3104 3104 3106 3103 3098 3093 3092 3094 3097 3099 3099 3101 3100 3100 3100 3100 3101 3101 3101 3102 3102 3103 3104 3103 3103 3102 3101 3100 3099 3098 3097 3095 3093 3091 3089 3087 3084
3088 3084 3085 3087 3091 3091 3093 3099 3100 3100 3097 3092 3088 3088 3087 3090 3088 3092 3095 3096 3098 3097 3096 3096 3096 3097 3098 3099 3099 3099 3098 3097 3096 3095 3094 3092 3090 3088 3087 3084 3081 3078 3076 3074
3084 3080 3080 3083 3076 3082 3084 3087 3090 3088 3088 3083 3082 3078 3083 3083 3081 3084 3086 3090 3094 3092 3090 3090 3092 3093 3094 3094 3093 3093 3092 3091 3091 3090 3088 3086 3084 3081 3078 3075 3071 3066 3064 3063
3076 3071 3070 3069 3074 3075 3077 3077 3077 3077 3077 3075 3075 3074 3077 3077 3079 3080 3082 3082 3085 3085 3083 3084 3087 3088 3088 3087 3087 3087 3086 3085 3084 3082 3079 3077 3074 3071 3067 3063 3059 3055 3052 3050
3070 3067 3065 3062 3068 3068 3068 3072 3068 3070 3074 3066 3065 3063 3073 3073 3071 3074 3076 3074 3075 3076 3077 3078 3080 3081 3081 3081 3080 3081 3080 3078 3077 3075 3073 3069 3065 3061 3058 3054 3050 3046 3043 3041
3067 3066 3063 3058 3050 3059 3061 3061 3062 3062 3060 3061 3059 3057 3064 3066 3065 3067 3068 3068 3067 3069 3070 3071 3073 3074 3073 3074 3074 3073 3071 3070 3069 3066 3063 3060 3056 3053 3050 3046 3042 3039 3036 3032
3059 3055 3056 3049 3045 3049 3049 3050 3053 3054 3053 3051 3051 3054 3056 3060 3061 3058 3057 3060 3061 3061 3063 3064 3066 3066 3066 3066 3065 3064 3062 3062 3060 3057 3054 3051 3047 3044 3041 3038 3035 3032 3028 3025
3054 3049 3046 3037 3035 3039 3040 3042 3046 3045 3047 3044 3041 3044 3047 3052 3056 3050 3051 3052 3053 3057 3058 3058 3058 3059 3059 3059 3058 3058 3057 3055 3053 3050 3046 3043 3040 3036 3033 3030 3026 3023 3020 3018
3050 3047 3045 3033 3032 3033 3029 3026 3024 3029 3034 3035 3032 3033 3042 3043 3045 3045 3044 3045 3048 3049 3050 3051 3052 3052 3052 3053 3052 3050 3049 3047 3045 3042 3038 3034 3031 3026 3022 3018 3015 3013 3010 3006
3041 3043 3046 3035 3035 3022 3003 3015 3019 3019 3020 3023 3027 3027 3031 3034 3038 3034 3037 3041 3044 3042 3044 3045 3044 3045 3046 3045 3044 3042 3041 3038 3036 3033 3028 3024 3020 3017 3012 3008 3005 3002 2998 2996
3032 3036 3037 3036 3031 3018 2999 3000 3008 3010 3005 3014 3016 3021 3025 3027 3027 3029 3030 3035 3035 3037 3037 3037 3037 3037 3038 3037 3037 3035 3033 3031 3027 3023 3018 3014 3010 3007 3002 2998 2995 2992 2989 2985
3021 3022 3029 3027 3028 3015 2985 2996 3001 3005 3000 3001 3008 3012 3017 3014 3023 3023 3025 3026 3028 3029 3029 3031 3031 3031 3032 3031 3029 3029 3026 3023 3019 3014 3010 3006 3001 2998 2994 2990 2987 2984 2980 2977
3012 3012 3009 3005 3014 3002 2984 2988 2997 2992 2988 2991 2997 3002 3006 3008 3014 3014 3019 3020 3022 3022 3023 3024 3025 3025 3024 3024 3021 3019 3017 3012 3008 3004 3001 2997 2993 2989 2986 2982 2978 2974 2969 2965
3003 3006 3003 2997 2999 2997 2986 2991 2990 2990 2988 2988 2992 2995 2998 3003 3003 3008 3010 3012 3015 3016 3017 3017 3018 3017 3016 3014 3012 3009 3006 3002 2998 2996 2992 2989 2986 2982 2978 2974 2970 2965 2961 2958
2989 2994 2991 2990 2977 2978 2987 2985 2985 2986 2984 2983 2989 2991 2992 2995 2999 3003 3004 3006 3008 3009 3010 3010 3010 3008 3007 3005 3003 2999 2996 2993 2991 2989 2985 2982 2979 2975 2972 2968 2964 2960 2956 2953
2979 2984 2979 2978 2960 2966 2969 2979 2978 2977 2977 2979 2983 2982 2989 2991 2993 2995 2998 3001 3002 3003 3003 3002 3001 2999 2998 2996 2994 2991 2989 2987 2984 2981 2978 2974 2972 2969 2965 2962 2958 2954 2951 2947
2971 2969 2966 2959 2952 2959 2959 2956 2967 2971 2970 2968 2977 2979 2980 2986 2988 2991 2993 2995 2996 2995 2994 2993 2992 2991 2989 2988 2986 2984 2982 2980 2977 2974 2972 2969 2966 2962 2959 2955 2952 2948 2944 2940
2960 2964 2961 2937 2944 2950 2938 2949 2961 2963 2963 2967 2975 2975 2976 2980 2984 2986 2986 2987 2987 2987 2986 2984 2984 2983 2981 2981 2979 2978 2976 2973 2970 2968 2966 2962 2959 2955 2952 2948 2945 2941 2937 2933